Zurück zum Katalog

INTELSAT 31

AktivKommunikationGEO
NORAD 41581·PAYLOAD· XX

Gestartet Jun 9, 2016 von Baikonur Cosmodrome

Loading…

TLE

AktuellSource: CelesTrak SupGP

Epoche: Sep 14, 2026, 00:00 UTC

1 41581C 16035A   26257.00000000 -.00000061  00000+0  00000+0 0  2579
2 41581   0.0239 237.8196 0001108  48.6416 331.4810  1.00272067    16

Verfolge INTELSAT 31 in Echtzeit mit AllMySat

Download on the App Store